Plymouth, MA

11:12 AM EST on January 18, 2018 (GMT -0500)
Plymouth Municipal

Weather History for KPYM - January, 2014

Change the Weather History Date:

Monday, January 6, 2014

  Actual Average Record
Temperature  
Mean Temperature 44 °F -  
Max Temperature 57 °F 37 °F 62 °F (2007)
Min Temperature 28 °F 18 °F -5 °F (1981)
Degree Days  
Heating Degree Days 22    
Moisture  
Dew Point 45 °F    
Average Humidity 86    
Maximum Humidity 94    
Minimum Humidity 51    
Precipitation  
Precipitation 0.20 in - - ()
Sea Level Pressure  
Sea Level Pressure 29.58 in    
Wind  
Wind Speed 11 mph (SSW)    
Max Wind Speed 21 mph    
Max Gust Speed 33 mph    
Visibility 5 miles    
Events Fog , Rain    
Averages and records for this station are not official NWS values.
T = Trace of Precipitation, MM = Missing Value Source: NWS Daily Summary

Daily Weather History Graph

Daily Weather History Graph

Search for Another Location

Airport or City:

Trip Planner

Search our weather history database for the weather conditions in past years. The results will help you decide how hot, cold, wet, or windy it might be!

Date:

Astronomy

Jan. 06, 2014 Rise Set
Actual Time 7:10 AM EST 4:27 PM EST
Civil Twilight 6:39 AM EST 4:58 PM EST
Nautical Twilight 6:04 AM EST 5:33 PM EST
Astronomical Twilight 5:30 AM EST 6:07 PM EST
Moon 10:18 AM EST (1/6) 11:03 PM EST (1/6)
Length of Visible Light 10h 19m
Length of Day
9h 16m
Waxing Crescent, 34% of the Moon is Illuminated
Jan 6
Waxing Crescent
Jan 7
First Quarter
Jan 15
Full
Jan 24
Last Quarter
Jan 30
New

Hourly Weather History & Observations

Time (EST) Temp. Windchill Dew Point Humidity Pressure Visibility Wind Dir Wind Speed Gust Speed Precip Events Conditions
12:07 AM 48.9 °F - 46.0 °F 90% 29.92 in 4.0 mi SSE 9.2 mph 19.6 mph 0.01 in Rain Light Rain
12:27 AM 50.0 °F - 46.9 °F 89% 29.91 in 2.5 mi SSE 9.2 mph 20.7 mph 0.01 in Rain Light Rain
12:40 AM 50.0 °F - 48.0 °F 93% 29.90 in 1.8 mi SSE 8.1 mph 20.7 mph 0.03 in Rain Light Rain
12:47 AM 51.8 °F - 48.2 °F 88% 29.89 in 2.5 mi SSE 10.4 mph 20.7 mph 0.04 in Rain Light Rain
12:52 AM 51.1 °F - 48.0 °F 89% 29.88 in 2.0 mi SE 12.7 mph 19.6 mph 0.05 in Rain Light Rain
1:10 AM 51.1 °F - 48.0 °F 89% 29.86 in 3.0 mi SSE 9.2 mph 19.6 mph 0.01 in Rain Light Rain
1:21 AM 51.1 °F - 48.0 °F 89% 29.86 in 1.8 mi SSE 10.4 mph 20.7 mph 0.01 in Rain Light Rain
1:47 AM 50.0 °F - 48.2 °F 94% 29.86 in 0.8 mi South 8.1 mph - 0.01 in   Overcast
1:52 AM 50.0 °F - 48.0 °F 93% 29.86 in 0.8 mi South 9.2 mph 18.4 mph 0.01 in   Overcast
2:22 AM 50.0 °F - 48.0 °F 93% 29.84 in 1.0 mi SSE 6.9 mph 19.6 mph N/A   Overcast
2:42 AM 50.0 °F - 48.0 °F 93% 29.83 in 0.8 mi South 10.4 mph 19.6 mph N/A   Overcast
2:52 AM 50.0 °F - 48.0 °F 93% 29.81 in 0.5 mi Variable 6.9 mph - N/A Fog Fog
3:14 AM 50.0 °F - 48.0 °F 93% 29.79 in 0.2 mi Variable 6.9 mph - N/A Fog Fog
3:52 AM 50.0 °F - 48.0 °F 93% 29.75 in 0.2 mi Variable 5.8 mph - 0.00 in Fog , Rain Light Rain
4:04 AM 51.1 °F - 48.0 °F 89% 29.74 in 0.5 mi Variable 6.9 mph - 0.00 in Fog Fog
4:52 AM 51.1 °F - 48.9 °F 92% 29.71 in 0.5 mi South 11.5 mph 18.4 mph 0.00 in Fog Fog
5:09 AM 51.1 °F - 48.9 °F 92% 29.69 in 1.5 mi South 9.2 mph - 0.02 in Rain Light Rain
5:32 AM 51.1 °F - 48.9 °F 92% 29.68 in 0.8 mi Variable 6.9 mph 18.4 mph 0.02 in   Overcast
5:50 AM 51.8 °F - 50.0 °F 94% 29.66 in 1.5 mi South 10.4 mph 17.3 mph 0.03 in Rain Light Rain
5:52 AM 53.1 °F - 50.0 °F 89% 29.66 in 1.2 mi South 9.2 mph 19.6 mph 0.03 in   Overcast
6:17 AM 53.1 °F - 51.1 °F 93% 29.65 in 0.5 mi South 9.2 mph 24.2 mph 0.00 in Fog Fog
6:27 AM 53.1 °F - 51.1 °F 93% 29.64 in 0.2 mi South 10.4 mph 25.3 mph 0.00 in Fog Fog
6:52 AM 53.1 °F - 51.1 °F 93% 29.63 in 0.2 mi South 8.1 mph 20.7 mph 0.00 in Fog Fog
7:14 AM 54.0 °F - 52.0 °F 93% 29.61 in 0.5 mi South 10.4 mph 21.9 mph N/A Fog Fog
7:52 AM 55.9 °F - 53.1 °F 90% 29.59 in 0.8 mi South 11.5 mph 21.9 mph 0.02 in Rain Light Rain
8:20 AM 55.0 °F - 53.1 °F 93% 29.57 in 0.2 mi South 12.7 mph 20.7 mph 0.00 in Fog , Rain Light Rain
8:52 AM 54.0 °F - 52.0 °F 93% 29.56 in 0.2 mi South 8.1 mph 20.7 mph 0.00 in Fog Fog
9:52 AM 54.0 °F - 52.0 °F 93% 29.51 in 0.2 mi South 13.8 mph 26.5 mph N/A Fog Fog
10:52 AM 55.0 °F - 53.1 °F 93% 29.46 in 0.2 mi SSW 15.0 mph 23.0 mph N/A Fog Fog
11:33 AM 57.0 °F - 54.0 °F 89% 29.41 in 1.0 mi SSW 16.1 mph 31.1 mph N/A   Overcast
11:36 AM 57.0 °F - 54.0 °F 89% 29.41 in 3.0 mi SSW 18.4 mph 33.4 mph N/A   Overcast
11:52 AM 57.0 °F - 54.0 °F 89% 29.40 in 9.0 mi SW 19.6 mph 33.4 mph 0.00 in Rain Light Rain
12:13 PM 57.0 °F - 54.0 °F 89% 29.38 in 10.0 mi SSW 18.4 mph 28.8 mph 0.00 in   Overcast
12:52 PM 55.9 °F - 53.1 °F 90% 29.37 in 10.0 mi SW 20.7 mph 28.8 mph 0.00 in   Overcast
1:41 PM 55.0 °F - 52.0 °F 89% 29.33 in 10.0 mi South 9.2 mph 19.6 mph N/A   Mostly Cloudy
1:48 PM 55.4 °F - 51.8 °F 88% 29.33 in 10.0 mi SSW 10.4 mph 18.4 mph N/A   Scattered Clouds
1:52 PM 55.0 °F - 51.1 °F 86% 29.34 in 10.0 mi SSW 11.5 mph - N/A   Scattered Clouds
2:52 PM 53.1 °F - 48.9 °F 86% 29.35 in 10.0 mi SSW 10.4 mph - 0.00 in Rain Light Rain
3:16 PM 51.1 °F - 46.9 °F 86% 29.38 in 5.0 mi WSW 16.1 mph 21.9 mph 0.01 in Rain Light Rain
3:26 PM 51.1 °F - 46.0 °F 83% 29.38 in 10.0 mi WSW 13.8 mph - 0.02 in Rain Light Rain
3:52 PM 48.9 °F - 43.0 °F 80% 29.37 in 7.0 mi WSW 12.7 mph - 0.04 in Rain Light Rain
4:52 PM 45.0 °F 39.7 °F 39.9 °F 82% 29.38 in 10.0 mi SW 10.4 mph - 0.00 in Rain Light Rain
5:52 PM 42.1 °F 36.6 °F 37.9 °F 85% 29.38 in 10.0 mi SW 9.2 mph - 0.04 in Rain Light Rain
6:20 PM 42.1 °F 34.5 °F 37.9 °F 85% 29.39 in 10.0 mi WSW 15.0 mph 19.6 mph 0.01 in   Overcast
6:35 PM 39.0 °F 30.3 °F 33.1 °F 79% 29.41 in 10.0 mi WNW 16.1 mph 29.9 mph 0.01 in Rain Light Rain
6:42 PM 37.0 °F 29.3 °F 32.0 °F 82% 29.41 in 10.0 mi West 11.5 mph 19.6 mph 0.01 in Rain Light Rain
6:49 PM 37.4 °F 28.9 °F 32.0 °F 81% 29.42 in 10.0 mi West 13.8 mph 19.6 mph 0.01 in Rain Light Rain
6:52 PM 37.0 °F 28.1 °F 32.0 °F 82% 29.43 in 10.0 mi West 15.0 mph 21.9 mph 0.01 in   Overcast
7:30 PM 35.1 °F 26.9 °F 28.0 °F 76% 29.43 in 10.0 mi West 11.5 mph - N/A   Overcast
7:52 PM 35.1 °F 26.9 °F 27.0 °F 72% 29.43 in 10.0 mi West 11.5 mph - N/A   Overcast
8:52 PM 33.1 °F 22.6 °F 21.9 °F 64% 29.46 in 10.0 mi West 16.1 mph 21.9 mph N/A   Overcast
9:52 PM 32.0 °F 24.2 °F 19.0 °F 59% 29.48 in 10.0 mi West 9.2 mph 26.5 mph N/A   Mostly Cloudy
10:52 PM 30.0 °F 18.7 °F 16.0 °F 56% 29.50 in 10.0 mi West 16.1 mph 26.5 mph N/A   Mostly Cloudy
11:52 PM 28.9 °F 18.2 °F 12.9 °F 51% 29.52 in 10.0 mi West 13.8 mph - N/A   Clear